When you browse on this site, cookies collect data to enhance your experience and personalize the content and advertising you see.
Visit our Privacy Policy to learn more. By continuing to use the site, you agree to this use of cookies and data.

Meteo orario Wlora

Oggi, 27 Settembre, Domenica

Tempo Temperatura Precipitazioni Vento Pressione Umidità
00:00 +19°C° 0.1 mm 5 m/s 755 mm Hg 63%
01:00 +19°C° 0 mm 4 m/s 755 mm Hg 62%
02:00 +19°C° 0 mm 4 m/s 755 mm Hg 62%
03:00 +19°C° 0 mm 4 m/s 755 mm Hg 62%
04:00 +19°C° 0 mm 4 m/s 756 mm Hg 61%
05:00 +19°C° 0 mm 4 m/s 756 mm Hg 61%
06:00 +20°C° 0 mm 3 m/s 756 mm Hg 60%
07:00 +21°C° 0 mm 3 m/s 757 mm Hg 61%
08:00 +22°C° 0 mm 4 m/s 757 mm Hg 59%
09:00 +23°C° 0 mm 5 m/s 757 mm Hg 56%
10:00 +24°C° 0 mm 6 m/s 758 mm Hg 54%
11:00 +24°C° 0.1 mm 7 m/s 758 mm Hg 56%
12:00 +24°C° 0.1 mm 8 m/s 758 mm Hg 57%
13:00 +24°C° 0.1 mm 9 m/s 758 mm Hg 58%
14:00 +24°C° 0.1 mm 9 m/s 758 mm Hg 61%
15:00 +23°C° 0.1 mm 10 m/s 757 mm Hg 63%
16:00 +23°C° 0.1 mm 10 m/s 757 mm Hg 65%
17:00 +22°C° 0.1 mm 11 m/s 757 mm Hg 68%
18:00 +22°C° 0.1 mm 11 m/s 757 mm Hg 72%
19:00 +21°C° 0.1 mm 11 m/s 757 mm Hg 75%
20:00 +21°C° 0 mm 12 m/s 757 mm Hg 74%
21:00 +21°C° 0 mm 12 m/s 758 mm Hg 74%
22:00 +21°C° 0 mm 12 m/s 758 mm Hg 73%
23:00 +20°C° 0.9 mm 13 m/s 758 mm Hg 76%

Domani, 28 Settembre, Lunedi

Tempo Temperatura Precipitazioni Vento Pressione Umidità
00:00 +20°C° 0.9 mm 13 m/s 758 mm Hg 79%
01:00 +19°C° 0.9 mm 14 m/s 758 mm Hg 82%
02:00 +20°C° 0.5 mm 14 m/s 757 mm Hg 81%
03:00 +20°C° 0.5 mm 14 m/s 757 mm Hg 79%
04:00 +20°C° 0.5 mm 15 m/s 756 mm Hg 78%
05:00 +20°C° 0.9 mm 13 m/s 757 mm Hg 80%
06:00 +21°C° 0.9 mm 11 m/s 758 mm Hg 82%
07:00 +21°C° 0.9 mm 10 m/s 758 mm Hg 83%
08:00 +22°C° 0.6 mm 9 m/s 759 mm Hg 82%
09:00 +22°C° 0.6 mm 9 m/s 759 mm Hg 81%
10:00 +22°C° 0.6 mm 8 m/s 760 mm Hg 80%
11:00 +23°C° 0.5 mm 8 m/s 760 mm Hg 77%
12:00 +23°C° 0.5 mm 8 m/s 760 mm Hg 74%
13:00 +24°C° 0.5 mm 7 m/s 760 mm Hg 70%
14:00 +23°C° 0.3 mm 6 m/s 759 mm Hg 71%
15:00 +23°C° 0.3 mm 5 m/s 759 mm Hg 71%
16:00 +23°C° 0.3 mm 4 m/s 759 mm Hg 71%
17:00 +22°C° 0.1 mm 5 m/s 760 mm Hg 72%
18:00 +21°C° 0.1 mm 5 m/s 760 mm Hg 74%
19:00 +21°C° 0.1 mm 6 m/s 760 mm Hg 75%
20:00 +21°C° 0.3 mm 5 m/s 760 mm Hg 74%
21:00 +21°C° 0.3 mm 5 m/s 760 mm Hg 74%
22:00 +20°C° 0.3 mm 5 m/s 761 mm Hg 73%
23:00 +20°C° 0.7 mm 4 m/s 760 mm Hg 73%

Dopodomani, 29 Settembre, Martedi

Tempo Temperatura Precipitazioni Vento Pressione Umidità
00:00 +20°C° 0.7 mm 3 m/s 760 mm Hg 73%
01:00 +20°C° 0.7 mm 3 m/s 760 mm Hg 74%
02:00 +20°C° 0.7 mm 2 m/s 760 mm Hg 74%
03:00 +19°C° 0.7 mm 2 m/s 760 mm Hg 75%
04:00 +19°C° 0.7 mm 2 m/s 760 mm Hg 75%
05:00 +20°C° 0.4 mm 3 m/s 760 mm Hg 74%
06:00 +20°C° 0.4 mm 3 m/s 760 mm Hg 73%
07:00 +20°C° 0.4 mm 4 m/s 760 mm Hg 72%
08:00 +21°C° 0.8 mm 4 m/s 760 mm Hg 68%
09:00 +22°C° 0.8 mm 4 m/s 760 mm Hg 64%
10:00 +23°C° 0.8 mm 4 m/s 760 mm Hg 61%
11:00 +24°C° 0.4 mm 3 m/s 760 mm Hg 60%
12:00 +24°C° 0.4 mm 3 m/s 760 mm Hg 60%
13:00 +25°C° 0.4 mm 3 m/s 760 mm Hg 59%
14:00 +24°C° 0.1 mm 3 m/s 760 mm Hg 60%
15:00 +24°C° 0.1 mm 3 m/s 760 mm Hg 61%
16:00 +22°C° 0.1 mm 4 m/s 759 mm Hg 62%
17:00 +21°C° 0.1 mm 4 m/s 760 mm Hg 68%
18:00 +20°C° 0.1 mm 5 m/s 760 mm Hg 74%
19:00 +20°C° 0.1 mm 5 m/s 761 mm Hg 80%
20:00 +19°C° 0 mm 5 m/s 761 mm Hg 80%
21:00 +19°C° 0 mm 5 m/s 761 mm Hg 80%
22:00 +19°C° 0 mm 5 m/s 761 mm Hg 80%
23:00 +17°C° 0 mm 5 m/s 761 mm Hg 80%

30 Settembre, Mercoledi

Tempo Temperatura Precipitazioni Vento Pressione Umidità
00:00 +17°C° 0 mm 5 m/s 760 mm Hg 80%
01:00 +17°C° 0 mm 5 m/s 760 mm Hg 80%
02:00 +17°C° 0 mm 5 m/s 760 mm Hg 80%
03:00 +17°C° 0 mm 5 m/s 760 mm Hg 80%
04:00 +17°C° 0 mm 5 m/s 760 mm Hg 80%
05:00 +17°C° 0 mm 5 m/s 760 mm Hg 79%
06:00 +19°C° 0 mm 5 m/s 760 mm Hg 78%
07:00 +19°C° 0 mm 5 m/s 760 mm Hg 77%
08:00 +20°C° 0 mm 5 m/s 760 mm Hg 71%
09:00 +21°C° 0 mm 5 m/s 759 mm Hg 66%
10:00 +22°C° 0 mm 5 m/s 759 mm Hg 61%
11:00 +22°C° 0.1 mm 5 m/s 759 mm Hg 61%
12:00 +22°C° 0.1 mm 5 m/s 759 mm Hg 61%
13:00 +23°C° 0.1 mm 6 m/s 758 mm Hg 60%
14:00 +22°C° 0 mm 6 m/s 758 mm Hg 61%
15:00 +22°C° 0 mm 5 m/s 758 mm Hg 62%
16:00 +22°C° 0 mm 5 m/s 758 mm Hg 63%
17:00 +21°C° 0 mm 5 m/s 758 mm Hg 67%
18:00 +20°C° 0 mm 5 m/s 758 mm Hg 70%
19:00 +19°C° 0 mm 5 m/s 758 mm Hg 73%
20:00 +19°C° 0 mm 5 m/s 758 mm Hg 75%
21:00 +17°C° 0 mm 5 m/s 758 mm Hg 76%
22:00 +18°C° 0 mm 4 m/s 758 mm Hg 77%
23:00 +18°C° 0 mm 4 m/s 758 mm Hg 78%

1 Ottobre, Giovedi

Tempo Temperatura Precipitazioni Vento Pressione Umidità
00:00 +18°C° 0 mm 4 m/s 758 mm Hg 79%
01:00 +17°C° 0 mm 4 m/s 757 mm Hg 79%
02:00 +17°C° 0 mm 4 m/s 757 mm Hg 79%
03:00 +17°C° 0 mm 4 m/s 757 mm Hg 79%
04:00 +17°C° 0 mm 4 m/s 757 mm Hg 78%
05:00 +18°C° 0 mm 4 m/s 757 mm Hg 75%
06:00 +18°C° 0 mm 4 m/s 757 mm Hg 71%
07:00 +19°C° 0 mm 4 m/s 757 mm Hg 67%
08:00 +20°C° 0 mm 4 m/s 757 mm Hg 63%
09:00 +21°C° 0 mm 4 m/s 757 mm Hg 58%
10:00 +22°C° 0 mm 4 m/s 757 mm Hg 54%
11:00 +23°C° 0 mm 4 m/s 757 mm Hg 54%
12:00 +23°C° 0 mm 4 m/s 757 mm Hg 54%
13:00 +23°C° 0 mm 4 m/s 757 mm Hg 54%
14:00 +23°C° 0 mm 4 m/s 756 mm Hg 55%
15:00 +24°C° 0 mm 3 m/s 756 mm Hg 56%
16:00 +22°C° 0 mm 3 m/s 756 mm Hg 57%
17:00 +21°C° 0 mm 2 m/s 756 mm Hg 60%
18:00 +21°C° 0 mm 2 m/s 757 mm Hg 64%
19:00 +21°C° 0 mm 1 m/s 757 mm Hg 67%
20:00 +20°C° 0 mm 1 m/s 757 mm Hg 67%
21:00 +20°C° 0 mm 1 m/s 757 mm Hg 66%
22:00 +20°C° 0 mm 1 m/s 757 mm Hg 66%
23:00 +20°C° 0 mm 1 m/s 757 mm Hg 67%

2 Ottobre, Venerdi

Tempo Temperatura Precipitazioni Vento Pressione Umidità
00:00 +20°C° 0 mm 1 m/s 757 mm Hg 67%
01:00 +19°C° 0 mm 1 m/s 757 mm Hg 68%
02:00 +19°C° 0 mm 1 m/s 757 mm Hg 69%
03:00 +18°C° 0 mm 2 m/s 757 mm Hg 69%
04:00 +18°C° 0 mm 2 m/s 757 mm Hg 70%
05:00 +19°C° 0 mm 2 m/s 757 mm Hg 68%
06:00 +19°C° 0 mm 3 m/s 757 mm Hg 66%
07:00 +20°C° 0 mm 3 m/s 757 mm Hg 64%
08:00 +21°C° 0 mm 4 m/s 757 mm Hg 60%
09:00 +23°C° 0 mm 4 m/s 757 mm Hg 56%
10:00 +25°C° 0 mm 5 m/s 757 mm Hg 52%
11:00 +26°C° 0 mm 6 m/s 757 mm Hg 52%
12:00 +26°C° 0 mm 6 m/s 757 mm Hg 52%
13:00 +27°C° 0 mm 7 m/s 757 mm Hg 51%
14:00 +26°C° 0 mm 7 m/s 757 mm Hg 55%
15:00 +26°C° 0 mm 7 m/s 757 mm Hg 58%
16:00 +26°C° 0 mm 7 m/s 757 mm Hg 62%
17:00 +24°C° 0 mm 8 m/s 757 mm Hg 68%
18:00 +23°C° 0 mm 8 m/s 758 mm Hg 73%
19:00 +22°C° 0 mm 8 m/s 758 mm Hg 79%
20:00 +21°C° 0 mm 8 m/s 758 mm Hg 80%
21:00 +21°C° 0 mm 8 m/s 758 mm Hg 81%
22:00 +21°C° 0 mm 8 m/s 758 mm Hg 83%
23:00 +21°C° 0 mm 8 m/s 758 mm Hg 82%
Mostrare altro